When you browse on this site, cookies collect data to enhance your experience and personalize the content and advertising you see.
Visit our Privacy Policy to learn more. By continuing to use the site, you agree to this use of cookies and data.
  • Em Portugal
  • Lista de países
  • Para 7 dias
  • Temperatura da água
  • Mapas de satélite
  • Mapa do tempo
  • Widgets de tempo
  • user-avatar
    Iniciar Sessão

    Previsão horária em Canberra

    Hoje, 16 Dezembro, Domingo

    Tempo Temperatura Precipitação Vento Pressão Humidade
    00:00 +16°C° 0 mm 0 m/s 702 mmHg 79%
    01:00 +15°C° 0 mm 0 m/s 702 mmHg 81%
    02:00 +15°C° 0 mm 0 m/s 702 mmHg 80%
    03:00 +14°C° 0 mm 0 m/s 702 mmHg 79%
    04:00 +13°C° 0 mm 0 m/s 702 mmHg 77%
    05:00 +16°C° 0 mm 1 m/s 703 mmHg 70%
    06:00 +19°C° 0 mm 1 m/s 703 mmHg 62%
    07:00 +20°C° 0 mm 2 m/s 704 mmHg 55%
    08:00 +22°C° 0 mm 3 m/s 704 mmHg 48%
    09:00 +25°C° 0 mm 4 m/s 704 mmHg 42%
    10:00 +25°C° 0 mm 5 m/s 704 mmHg 37%
    11:00 +26°C° 0 mm 5 m/s 704 mmHg 37%
    12:00 +27°C° 0 mm 5 m/s 704 mmHg 37%
    13:00 +27°C° 0 mm 6 m/s 704 mmHg 37%
    14:00 +27°C° 0 mm 5 m/s 704 mmHg 37%
    15:00 +27°C° 0 mm 5 m/s 703 mmHg 38%
    16:00 +27°C° 0 mm 4 m/s 703 mmHg 38%
    17:00 +25°C° 0 mm 3 m/s 703 mmHg 43%
    18:00 +24°C° 0 mm 3 m/s 703 mmHg 47%
    19:00 +21°C° 0 mm 2 m/s 703 mmHg 52%
    20:00 +20°C° 0 mm 2 m/s 704 mmHg 54%
    21:00 +18°C° 0 mm 2 m/s 704 mmHg 56%
    22:00 +18°C° 0 mm 1 m/s 704 mmHg 58%
    23:00 +16°C° 0 mm 1 m/s 704 mmHg 59%

    Amanhã, 17 Dezembro, Segunda-feira

    Tempo Temperatura Precipitação Vento Pressão Humidade
    00:00 +16°C° 0 mm 1 m/s 704 mmHg 61%
    01:00 +15°C° 0 mm 1 m/s 704 mmHg 63%
    02:00 +15°C° 0 mm 1 m/s 704 mmHg 64%
    03:00 +15°C° 0 mm 1 m/s 704 mmHg 65%
    04:00 +14°C° 0 mm 1 m/s 704 mmHg 66%
    05:00 +18°C° 0 mm 1 m/s 705 mmHg 61%
    06:00 +20°C° 0 mm 1 m/s 705 mmHg 56%
    07:00 +22°C° 0 mm 1 m/s 706 mmHg 51%
    08:00 +24°C° 0 mm 1 m/s 706 mmHg 46%
    09:00 +26°C° 0 mm 2 m/s 706 mmHg 41%
    10:00 +28°C° 0 mm 3 m/s 706 mmHg 36%
    11:00 +28°C° 0 mm 3 m/s 706 mmHg 34%
    12:00 +29°C° 0 mm 3 m/s 706 mmHg 33%
    13:00 +30°C° 0 mm 3 m/s 706 mmHg 31%
    14:00 +30°C° 0 mm 3 m/s 706 mmHg 32%
    15:00 +30°C° 0 mm 3 m/s 706 mmHg 33%
    16:00 +30°C° 0 mm 3 m/s 706 mmHg 33%
    17:00 +28°C° 0 mm 2 m/s 706 mmHg 41%
    18:00 +26°C° 0 mm 2 m/s 706 mmHg 49%
    19:00 +23°C° 0 mm 1 m/s 706 mmHg 57%
    20:00 +22°C° 0 mm 1 m/s 707 mmHg 65%
    21:00 +19°C° 0 mm 2 m/s 707 mmHg 73%
    22:00 +17°C° 0 mm 2 m/s 708 mmHg 80%
    23:00 +17°C° 0 mm 2 m/s 707 mmHg 83%

    Depois de amanhã, 18 Dezembro, Terça-feira

    Tempo Temperatura Precipitação Vento Pressão Humidade
    00:00 +16°C° 0 mm 2 m/s 707 mmHg 86%
    01:00 +16°C° 0 mm 2 m/s 707 mmHg 89%
    02:00 +15°C° 0 mm 1 m/s 707 mmHg 90%
    03:00 +15°C° 0 mm 1 m/s 707 mmHg 90%
    04:00 +15°C° 0 mm 1 m/s 707 mmHg 91%
    05:00 +16°C° 0 mm 1 m/s 707 mmHg 83%
    06:00 +19°C° 0 mm 1 m/s 708 mmHg 76%
    07:00 +21°C° 0 mm 1 m/s 709 mmHg 68%
    08:00 +23°C° 0 mm 1 m/s 709 mmHg 61%
    09:00 +26°C° 0 mm 2 m/s 709 mmHg 54%
    10:00 +28°C° 0 mm 2 m/s 709 mmHg 47%
    11:00 +29°C° 0 mm 2 m/s 709 mmHg 43%
    12:00 +31°C° 0 mm 2 m/s 709 mmHg 39%
    13:00 +32°C° 0 mm 2 m/s 709 mmHg 35%
    14:00 +32°C° 0 mm 2 m/s 709 mmHg 37%
    15:00 +31°C° 0 mm 3 m/s 708 mmHg 38%
    16:00 +30°C° 0 mm 3 m/s 708 mmHg 40%
    17:00 +27°C° 0 mm 3 m/s 708 mmHg 52%
    18:00 +23°C° 0 mm 4 m/s 708 mmHg 65%
    19:00 +20°C° 0 mm 4 m/s 708 mmHg 77%
    20:00 +19°C° 0 mm 3 m/s 709 mmHg 80%
    21:00 +18°C° 0 mm 3 m/s 709 mmHg 84%
    22:00 +17°C° 0 mm 3 m/s 709 mmHg 87%
    23:00 +17°C° 0 mm 3 m/s 709 mmHg 88%

    19 Dezembro, Quarta-feira

    Tempo Temperatura Precipitação Vento Pressão Humidade
    00:00 +16°C° 0 mm 3 m/s 709 mmHg 89%
    01:00 +16°C° 0 mm 2 m/s 709 mmHg 90%
    02:00 +15°C° 0 mm 2 m/s 708 mmHg 91%
    03:00 +15°C° 0 mm 2 m/s 708 mmHg 91%
    04:00 +15°C° 0 mm 2 m/s 708 mmHg 91%
    05:00 +16°C° 0 mm 2 m/s 708 mmHg 87%
    06:00 +17°C° 0 mm 2 m/s 708 mmHg 83%
    07:00 +18°C° 0 mm 2 m/s 709 mmHg 78%
    08:00 +20°C° 0 mm 2 m/s 709 mmHg 71%
    09:00 +23°C° 0 mm 2 m/s 709 mmHg 64%
    10:00 +26°C° 0 mm 3 m/s 709 mmHg 56%
    11:00 +28°C° 0 mm 2 m/s 708 mmHg 52%
    12:00 +30°C° 0 mm 2 m/s 708 mmHg 47%
    13:00 +32°C° 0 mm 2 m/s 707 mmHg 43%
    14:00 +33°C° 0 mm 3 m/s 707 mmHg 42%
    15:00 +33°C° 0 mm 3 m/s 706 mmHg 42%
    16:00 +33°C° 0 mm 3 m/s 706 mmHg 42%
    17:00 +29°C° 0 mm 3 m/s 706 mmHg 54%
    18:00 +26°C° 0 mm 3 m/s 705 mmHg 66%
    19:00 +22°C° 0 mm 4 m/s 705 mmHg 78%
    20:00 +21°C° 0 mm 3 m/s 705 mmHg 83%
    21:00 +20°C° 0 mm 3 m/s 705 mmHg 87%
    22:00 +19°C° 0 mm 2 m/s 705 mmHg 91%
    23:00 +19°C° 0 mm 2 m/s 704 mmHg 92%

    20 Dezembro, Quinta-feira

    Tempo Temperatura Precipitação Vento Pressão Humidade
    00:00 +19°C° 0 mm 2 m/s 703 mmHg 94%
    01:00 +18°C° 0 mm 2 m/s 703 mmHg 95%
    02:00 +18°C° 0.1 mm 2 m/s 702 mmHg 95%
    03:00 +19°C° 0.1 mm 1 m/s 702 mmHg 95%
    04:00 +20°C° 0.1 mm 1 m/s 701 mmHg 95%
    05:00 +21°C° 0 mm 3 m/s 701 mmHg 84%
    06:00 +23°C° 0 mm 4 m/s 702 mmHg 73%
    07:00 +27°C° 0 mm 6 m/s 702 mmHg 62%
    08:00 +29°C° 0 mm 7 m/s 702 mmHg 51%
    09:00 +32°C° 0 mm 8 m/s 702 mmHg 39%
    10:00 +35°C° 0 mm 8 m/s 702 mmHg 28%
    11:00 +35°C° 0 mm 9 m/s 701 mmHg 25%
    12:00 +37°C° 0 mm 9 m/s 700 mmHg 23%
    13:00 +37°C° 0 mm 9 m/s 700 mmHg 20%
    14:00 +35°C° 0 mm 9 m/s 700 mmHg 21%
    15:00 +34°C° 0 mm 8 m/s 699 mmHg 22%
    16:00 +34°C° 0 mm 8 m/s 699 mmHg 23%
    17:00 +30°C° 0 mm 6 m/s 700 mmHg 29%
    18:00 +28°C° 0 mm 5 m/s 700 mmHg 36%
    19:00 +26°C° 0 mm 3 m/s 701 mmHg 43%
    20:00 +24°C° 0 mm 3 m/s 701 mmHg 50%
    21:00 +22°C° 0 mm 3 m/s 702 mmHg 57%
    22:00 +20°C° 0 mm 3 m/s 702 mmHg 65%
    23:00 +19°C° 0 mm 3 m/s 702 mmHg 69%

    21 Dezembro, Sexta-feira

    Tempo Temperatura Precipitação Vento Pressão Humidade
    00:00 +18°C° 0 mm 2 m/s 702 mmHg 74%
    01:00 +17°C° 0 mm 2 m/s 702 mmHg 78%
    02:00 +16°C° 0 mm 2 m/s 702 mmHg 82%
    03:00 +15°C° 0 mm 1 m/s 702 mmHg 85%
    04:00 +15°C° 0 mm 1 m/s 702 mmHg 89%
    05:00 +16°C° 0 mm 1 m/s 703 mmHg 82%
    06:00 +18°C° 0 mm 1 m/s 703 mmHg 75%
    07:00 +20°C° 0 mm 1 m/s 704 mmHg 68%
    08:00 +21°C° 0 mm 1 m/s 704 mmHg 61%
    09:00 +23°C° 0 mm 1 m/s 704 mmHg 55%
    10:00 +24°C° 0 mm 2 m/s 705 mmHg 48%
    11:00 +26°C° 0 mm 2 m/s 704 mmHg 43%
    12:00 +27°C° 0 mm 2 m/s 704 mmHg 38%
    13:00 +28°C° 0 mm 2 m/s 704 mmHg 33%
    14:00 +28°C° 0 mm 3 m/s 703 mmHg 34%
    15:00 +27°C° 0 mm 3 m/s 703 mmHg 34%
    16:00 +27°C° 0 mm 3 m/s 703 mmHg 35%
    17:00 +24°C° 0 mm 3 m/s 703 mmHg 45%
    18:00 +21°C° 0 mm 3 m/s 703 mmHg 56%
    19:00 +18°C° 0 mm 3 m/s 704 mmHg 66%
    20:00 +17°C° 0 mm 3 m/s 704 mmHg 72%
    21:00 +16°C° 0 mm 3 m/s 704 mmHg 78%
    22:00 +14°C° 0 mm 3 m/s 705 mmHg 84%
    23:00 +15°C° 0.1 mm 2 m/s 705 mmHg 86%
    Mostrar mais